Starlink 30706

operational
NORAD ID: 57947 Int'l Des: 2023-148 Owner: SPXS Country: US Constellation: starlink
LEOCIRCULAR

About Starlink 30706

Description loading...

Live Position

Loading 3D Globe...

Upcoming Passes

Altitude History

Altitude vs Time

uPlot chart will show altitude changes over time

Two-Line Element Set

1 57947U 23148N 25258.01597939 .00000168 00000-0 17802-4 0 9992
2 57947 53.1598 120.4208 0001382 93.5783 266.5376 15.30192493111523
Epoch: Sep 15, 2025 • Age: 20 hours

Current Status

Altitude 489.5 km
Velocity 7.62 km/s
Sub-Earth Point -40.82°S, 38.39°E
Launch Date Sep 25, 2023
Age 1.9 years
Type internet

Technical Details

Classification Payload
Mass 730.00 kg
Dry Mass 700.00 kg
Total Mass 730.00 kg
Length 0.30 m
Diameter 4.10 m
Span 29.00 m
Shape Box + pan
Manufacturer SPXS
Bus Type Starlink V2M
Phase Status In Orbit
Owner/State SPXS/US

Large Constellations

Loading constellations...